STARLINK-35296, 65801

Orbit data source: Space-Track

STARLINK-35296, 65801 is a payload satellite owned by SpaceX/Seattle (US) in SSO that was launched on Fri, 26 Sep 2025 UTC via an FALCON 9 launch vehicle from the Air Force Western Test Range (AFWTR). Payload-class satellites include a variety of spacecraft equipped with specific instruments for various scientific and technological missions. These include communications satellites like Starlink; space stations such as the ISS; scientific satellites like the Hubble; Earth observation satellites from companies like Planet Labs, Umbra, and HawkEye 360; GPS; miniature CubeSats for education and research; and military/defense satellites.

Loading next visibility...
Identifier
65801, 2025-218L
Orbit
SSO
Country
Flag of USUS
Related business
Manufacturer
SpaceX/Seattle
Mission
Operational Commercial Communications
Bus & Motor
STARLINK V2MO, Unknown motor
Mass
575 kg wet, ~530 kg dry
Launch date (UTC)
2025-09-26 (2 months ago)
Launch vehicle
FALCON 9
Launch site
Air Force Western Test Range (AFWTR)
Object type
Payload
Rocket body
Debris
Shape & HBR
Box + 2 Pan, 17.7 m
Radar Cross Section
36.964 m²

Expand to show TLE details & history
Last TLE update: 15 hours ago

TLE from 15 hours ago
0 STARLINK-35296
1 65801U 25218L   25340.58369303  .00011583  00000-0  80551-3 0  9999
2 65801  97.5999 201.2347 0002384  83.3827 276.7672 15.05655149 10961
Epoch: 2025-12-06T14:00Z
TLE epoch observation values (Epoch: 2025-12-06T14:00:31.077Z)
Latitude
0.00005°
Longitude
-84.50414°
Altitude
552.366 km
Speed
7.586 km/s
True Right ascension
13h 24m 56s
True Declination
0° 00' 00"
Sunlit
Object was in daylight at epoch
Visualization orbit readout
Latitude
Unknown
Longitude
Unknown
Altitude
Unknown
Speed
Unknown
Apparent Right ascension
Unknown
Apparent Declination
Unknown
Sunlit
N/A
Visualization observer readout
Local Sidereal Time
03:22:53
Azimuth
Unknown
Elevation
Unknown
Doppler factor
Unknown
Orbital elements
Apogee altitude
548.14 km
Perigee altitude
544.838 km
Semi-major axis
6,924.626 km
Eccentricity
0.00024
Inclination
97.5999°
RAAN
201.2347°
Arg. of periapsis
83.3827°
True anomaly
276.74007°
Mean anomaly
276.7672°
Eccentric anomaly
276.75364°
Mean motion
3.76659 °/min
Orbital period
95.58 mins
BSTAR
0.00080551
Loading maneuver chart data...
Computing Atmospheric mass density...
Loading historical data...
Loading historical data...
Loading historical data...
Loading historical data...
Loading historical data...
Loading historical data...
Loading historical data...

Documentation

Showing up to 5 results
|